AirNav  
 
 843 users online  

11KS Squadron Field Airport
Erie, Kansas, USA

GOING TO ERIE?


FAA INFORMATION EFFECTIVE 29 MARCH 2018

Location

FAA Identifier: 11KS
Lat/Long: 37-27-39.9600N / 095-14-31.0200W
37-27.666000N / 095-14.517000W
37.4611000 / -95.2419500
(estimated)
Elevation: 947 ft. / 289 m (estimated)
From city: 8 miles S of ERIE, KS
Time zone: UTC -5 (UTC -6 during Standard Time)
Zip code: 66740

Airport Operations

Airport use: Private use. Permission required prior to landing
Activation date: 03/2017
Control tower: no
ARTCC: KANSAS CITY CENTER
FSS: COLUMBIA FLIGHT SERVICE STATION
Attendance: UNATNDD
Segmented circle: no

Airport Communications

WX ASOS at PPF (15 nm SW): 118.175 (620-336-3834)
WX ASOS at CNU (17 nm NW): 127.075 (620-431-6781)

Nearby radio navigation aids

VOR radial/distance  VOR name  Freq  Var
OSWr346/18.3OSWEGO VOR/DME117.6008E
CNUr116/19.4CHANUTE VOR/DME109.2005E

 
NDB name  Hdg/Dist  Freq  Var  ID
COFFEYVILLE030/27.121205ECFV -.-. ..-. ...-

Airport Services

Runway Information

Runway 1/19

Dimensions: 1970 x 100 ft. / 600 x 30 m
Surface: turf
RUNWAY 1  RUNWAY 19
Traffic pattern: leftleft

Airport Ownership and Management from official FAA records

Ownership: Privately-owned
Owner: KENNETH A. STEENROD
18742 MCKINNLEY LAKE ROAD
PARSONS, KS 67357
Phone 620-778-9577
Manager: SQUADRON FIELD
16650 60TH ROAD
ERIE, KS 66733

Instrument Procedures

There are no published instrument procedures at 11KS.

Some nearby airports with instrument procedures:

KPPF - Tri-City Airport (15 nm SW)
KCNU - Chanute Martin Johnson Airport (17 nm NW)
2K7 - Neodesha Municipal Airport (19 nm W)
KPTS - Atkinson Municipal Airport (24 nm E)
K88 - Allen County Airport (25 nm N)
 
Loc | Ops | Rwys | IFR | FBO | Links
Com | Nav | Svcs | Stats | Notes

AirNav Hotels Sweepstakes
 
Aerial photo
No photo
 
Airport distance calculator
Flying to Squadron Field Airport? Find the distance to fly.

From to 11KS

Sunrise and sunset
Times for 21-Apr-2018
 Local
(UTC-5)
 Zulu
(UTC)
Morning civil twilight06:1211:12
Sunrise06:3911:39
Sunset20:0001:00
Evening civil twilight20:2801:28

Current date and time
Zulu (UTC)  22-Apr-2018 01:14:56
Local (UTC-5)  21-Apr-2018 20:14:56
 
METAR
KPPF 
14nm SW 
220052Z AUTO 02008KT 8SM BKN055 OVC085 08/08 A3009 RMK AO2 RAE45 SLP191 P0001 T00830078
KCNU 
17nm NW 
220052Z AUTO 36009KT 7SM -RA OVC060 08/07 A3011 RMK AO2 SLP196 P0001 T00830072
KPTS 
24nm E 
220055Z AUTO 00000KT 10SM RA SCT049 OVC055 13/13 A3009 RMK AO2 P0003 T01330128
KCFV 
27nm SW 
220052Z AUTO 02010KT 8SM SCT050 OVC060 09/08 A3008 RMK AO2 RAE24 SLP188 P0000 T00890078 $
TAF
KCNU 
17nm NW 
211739Z 2118/2218 07007KT P6SM SHRA OVC060 FM212200 05010KT 6SM -SHRA OVC040 FM220000 03008KT 5SM -SHRA OVC030 FM220400 02008KT P6SM -SHRA OVC025 FM220900 02008KT P6SM -SHRA OVC015 FM221200 02009KT P6SM OVC008
NOTAMs
Click for the latest NOTAMs
NOTAMs are issued by the DoD/FAA and will open in a separate window not controlled by AirNav.

 

 
 

Would you like to see your business listed on this page?

 If your business provides an interesting product or service to pilots, flight crews, aircraft, or users of the Squadron Field Airport, you should consider listing it here.  To start the listing process, click on the button below
 
Add a business
 

Other Pages about Squadron Field Airport

Update a link
 
Copyright © AirNav, LLC. All rights reserved. Privacy Policy  Contact